| time (UTC) | temp F | wind direction | speed MPH | gust MPH | rain 1hr in | rain 24hr in | rain mn in | humidity % | barometer mb |
| 20260503203413 | 70 | 277 | 5.0 | 7.0 | 0.00 | 0.00 | 0.00 | 22 | 1002.9 |
| 20260503202910 | 70 | 83 | 2.0 | 3.0 | 0.00 | 0.00 | 0.00 | 24 | 1002.9 |
| 20260503202408 | 70 | 269 | 3.0 | 6.0 | 0.00 | 0.00 | 0.00 | 23 | 1002.9 |
| 20260503201906 | 70 | 55 | 2.0 | 7.0 | 0.00 | 0.00 | 0.00 | 23 | 1003.0 |
| 20260503201403 | 69 | 325 | 5.0 | 10.0 | 0.00 | 0.00 | 0.00 | 22 | 1003.0 |
| 20260503200901 | 70 | 118 | 2.0 | 8.0 | 0.00 | 0.00 | 0.00 | 22 | 1003.0 |
| 20260503200356 | 70 | 343 | 4.0 | 5.0 | 0.00 | 0.00 | 0.00 | 22 | 1003.1 |
| 20260503195854 | 70 | 305 | 5.0 | 7.0 | 0.00 | 0.00 | 0.00 | 20 | 1003.2 |
| 20260503195350 | 71 | 103 | 2.0 | 5.0 | 0.00 | 0.00 | 0.00 | 21 | 1002.8 |
| 20260503194847 | 70 | 45 | 3.0 | 5.0 | 0.00 | 0.00 | 0.00 | 20 | 1003.1 |
| 20260503194343 | 71 | 54 | 2.0 | 6.0 | 0.00 | 0.00 | 0.00 | 19 | 1003.2 |
| 20260503193840 | 69 | 141 | 1.0 | 7.0 | 0.00 | 0.00 | 0.00 | 21 | 1003.1 |
| 20260503193336 | 69 | 5 | 2.0 | 3.0 | 0.00 | 0.00 | 0.00 | 24 | 1003.3 |
| 20260503192832 | 70 | 87 | 2.0 | 6.0 | 0.00 | 0.00 | 0.00 | 22 | 1003.4 |
| 20260503192327 | 70 | 54 | 4.0 | 7.0 | 0.00 | 0.00 | 0.00 | 22 | 1003.2 |
| 20260503191824 | 70 | 64 | 5.0 | 8.0 | 0.00 | 0.00 | 0.00 | 23 | 1003.2 |
| 20260503191321 | 70 | 333 | 2.0 | 3.0 | 0.00 | 0.00 | 0.00 | 24 | 1003.3 |
| 20260503190818 | 69 | 228 | 1.0 | 6.0 | 0.00 | 0.00 | 0.00 | 24 | 1003.5 |
| 20260503190315 | 70 | 87 | 2.0 | 7.0 | 0.00 | 0.00 | 0.00 | 23 | 1003.5 |
| 20260503185812 | 69 | 60 | 3.0 | 6.0 | 0.00 | 0.00 | 0.00 | 27 | 1003.3 |
| 20260503185307 | 69 | 15 | 6.0 | 10.0 | 0.00 | 0.00 | 0.00 | 25 | 1003.6 |
| 20260503184802 | 69 | 69 | 3.0 | 9.0 | 0.00 | 0.00 | 0.00 | 27 | 1003.6 |
| 20260503184258 | 67 | 340 | 1.0 | 7.0 | 0.00 | 0.00 | 0.00 | 28 | 1003.6 |
| 20260503183754 | 68 | 301 | 5.0 | 8.0 | 0.00 | 0.00 | 0.00 | 28 | 1003.4 |
| 20260503183252 | 69 | 2 | 4.0 | 7.0 | 0.00 | 0.00 | 0.00 | 27 | 1003.6 |
| 20260503182749 | 69 | 33 | 4.0 | 7.0 | 0.00 | 0.00 | 0.00 | 29 | 1003.5 |
| 20260503182248 | 68 | 231 | 5.0 | 7.0 | 0.00 | 0.00 | 0.00 | 29 | 1003.6 |
| 20260503181744 | 68 | 173 | 4.0 | 9.0 | 0.00 | 0.00 | 0.00 | 29 | 1003.5 |
| 20260503181242 | 69 | 84 | 2.0 | 8.0 | 0.00 | 0.00 | 0.00 | 29 | 1003.8 |
| 20260503180738 | 68 | 93 | 4.0 | 9.0 | 0.00 | 0.00 | 0.00 | 30 | 1003.9 |
| 20260503180236 | 68 | 18 | 4.0 | 8.0 | 0.00 | 0.00 | 0.00 | 33 | 1003.6 |
| 20260503175732 | 69 | 41 | 6.0 | 8.0 | 0.00 | 0.00 | 0.00 | 34 | 1003.7 |
| 20260503175231 | 69 | 130 | 1.0 | 6.0 | 0.00 | 0.00 | 0.00 | 34 | 1003.8 |
| 20260503174726 | 70 | 142 | 2.0 | 7.0 | 0.00 | 0.00 | 0.00 | 34 | 1003.8 |
| 20260503174224 | 69 | 206 | 2.0 | 6.0 | 0.00 | 0.00 | 0.00 | 37 | 1003.7 |
| 20260503173719 | 68 | 280 | 5.0 | 9.0 | 0.00 | 0.00 | 0.00 | 37 | 1003.8 |
| 20260503173215 | 69 | 307 | 2.0 | 6.0 | 0.00 | 0.00 | 0.00 | 36 | 1003.8 |
| 20260503172712 | 69 | 310 | 9.0 | 15.0 | 0.00 | 0.00 | 0.00 | 36 | 1003.7 |
| 20260503172209 | 69 | 226 | 5.0 | 7.0 | 0.00 | 0.00 | 0.00 | 34 | 1003.8 |
| 20260503171705 | 69 | 71 | 1.0 | 3.0 | 0.00 | 0.00 | 0.00 | 36 | 1004.0 |
| 20260503171203 | 69 | 20 | 4.0 | 8.0 | 0.00 | 0.00 | 0.00 | 34 | 1004.0 |
| 20260503170700 | 69 | 218 | 1.0 | 6.0 | 0.00 | 0.00 | 0.00 | 35 | 1004.1 |
| 20260503170157 | 68 | 7 | 3.0 | 7.0 | 0.00 | 0.00 | 0.00 | 36 | 1004.2 |
| 20260503160118 | 67 | 70 | 3.0 | 5.0 | 0.00 | 0.00 | 0.00 | 42 | 1003.9 |
| 20260503150543 | 64 | 55 | 2.0 | 3.0 | 0.00 | 0.00 | 0.00 | 46 | 1003.7 |
| 20260503130933 | 55 | 150 | 0.0 | 1.0 | 0.00 | 0.00 | 0.00 | 60 | 1003.3 |
| 20260503130431 | 54 | 148 | 0.0 | 2.0 | 0.00 | 0.00 | 0.00 | 61 | 1003.5 |
| 20260503110823 | 49 | 144 | 0.0 | 1.0 | 0.00 | 0.00 | 0.00 | 67 | 1002.5 |
| 20260503110320 | 49 | 144 | 0.0 | 1.0 | 0.00 | 0.00 | 0.00 | 67 | 1002.3 |
| 20260503100246 | 49 | 154 | 0.0 | 1.0 | 0.00 | 0.00 | 0.00 | 66 | 1002.5 |
| 20260503090206 | 52 | 135 | 1.0 | 2.0 | 0.00 | 0.00 | 0.00 | 59 | 1002.8 |
| 20260503081636 | 53 | 139 | 1.0 | 2.0 | 0.00 | 0.00 | 0.00 | 57 | 1003.0 |
| 20260503081133 | 53 | 140 | 1.0 | 2.0 | 0.00 | 0.00 | 0.00 | 57 | 1003.3 |
| 20260503080629 | 54 | 144 | 1.0 | 1.0 | 0.00 | 0.00 | 0.00 | 57 | 1003.3 |
| 20260503080126 | 54 | 156 | 1.0 | 2.0 | 0.00 | 0.00 | 0.00 | 56 | 1003.3 |
| 20260503072603 | 54 | 100 | 0.0 | 0.0 | 0.00 | 0.00 | 0.00 | 55 | 1004.1 |
| 20260503072100 | 54 | 99 | 0.0 | 1.0 | 0.00 | 0.00 | 0.00 | 55 | 1003.8 |
| 20260503071556 | 54 | 104 | 0.0 | 1.0 | 0.00 | 0.00 | 0.00 | 56 | 1004.1 |
| 20260503071053 | 54 | 142 | 0.0 | 0.0 | 0.00 | 0.00 | 0.00 | 57 | 1004.1 |
| 20260503070550 | 54 | 142 | 0.0 | 0.0 | 0.00 | 0.00 | 0.00 | 56 | 1003.8 |
| 20260503055003 | 56 | 147 | 3.0 | 5.0 | 0.00 | 0.00 | 0.00 | 52 | 1004.5 |
| 20260503054459 | 56 | 160 | 3.0 | 5.0 | 0.00 | 0.00 | 0.00 | 51 | 1004.5 |
| 20260503053957 | 56 | 141 | 2.0 | 3.0 | 0.00 | 0.00 | 0.00 | 52 | 1004.4 |
| 20260503053455 | 56 | 136 | 3.0 | 5.0 | 0.00 | 0.00 | 0.00 | 51 | 1004.6 |
| 20260503052951 | 56 | 131 | 2.0 | 3.0 | 0.00 | 0.00 | 0.00 | 52 | 1005.0 |
| 20260503052449 | 57 | 151 | 3.0 | 3.0 | 0.00 | 0.00 | 0.00 | 51 | 1004.7 |
| 20260503051945 | 57 | 160 | 2.0 | 3.0 | 0.00 | 0.00 | 0.00 | 50 | 1004.7 |
| 20260503051441 | 57 | 148 | 2.0 | 3.0 | 0.00 | 0.00 | 0.00 | 50 | 1005.0 |
| 20260503050938 | 57 | 157 | 2.0 | 3.0 | 0.00 | 0.00 | 0.00 | 50 | 1004.7 |
| 20260503050433 | 58 | 155 | 2.0 | 3.0 | 0.00 | 0.00 | 0.00 | 50 | 1005.2 |
| 20260503045932 | 58 | 151 | 2.0 | 3.0 | 0.00 | 0.00 | 0.00 | 49 | 1005.3 |
| 20260503045429 | 58 | 145 | 2.0 | 3.0 | 0.00 | 0.00 | 0.00 | 49 | 1005.2 |
| 20260503044926 | 58 | 153 | 2.0 | 3.0 | 0.00 | 0.00 | 0.00 | 49 | 1005.2 |
| 20260503044422 | 58 | 157 | 3.0 | 3.0 | 0.00 | 0.00 | 0.00 | 50 | 1005.5 |
| 20260503043920 | 58 | 152 | 2.0 | 2.0 | 0.00 | 0.00 | 0.00 | 50 | 1005.4 |
| 20260503043416 | 58 | 151 | 1.0 | 1.0 | 0.00 | 0.00 | 0.00 | 50 | 1005.6 |
| 20260503042913 | 58 | 151 | 1.0 | 1.0 | 0.00 | 0.00 | 0.00 | 49 | 1005.8 |
| 20260503042410 | 58 | 151 | 1.0 | 1.0 | 0.00 | 0.00 | 0.00 | 50 | 1005.9 |
| 20260503041906 | 58 | 151 | 1.0 | 1.0 | 0.00 | 0.00 | 0.00 | 49 | 1006.1 |
| 20260503041403 | 58 | 151 | 1.0 | 2.0 | 0.00 | 0.00 | 0.00 | 49 | 1005.7 |
| 20260503040900 | 58 | 151 | 1.0 | 2.0 | 0.00 | 0.00 | 0.00 | 48 | 1005.9 |
| 20260503040358 | 58 | 151 | 1.0 | 2.0 | 0.00 | 0.00 | 0.00 | 48 | 1005.9 |
| 20260503035854 | 59 | 151 | 2.0 | 2.0 | 0.00 | 0.00 | 0.00 | 47 | 1006.0 |
| 20260503035351 | 59 | 151 | 1.0 | 2.0 | 0.00 | 0.00 | 0.00 | 47 | 1005.9 |
| 20260503034849 | 58 | 150 | 2.0 | 2.0 | 0.00 | 0.00 | 0.00 | 47 | 1006.0 |
| 20260503034346 | 59 | 149 | 2.0 | 2.0 | 0.00 | 0.00 | 0.00 | 47 | 1006.0 |
| 20260503033843 | 59 | 146 | 1.0 | 1.0 | 0.00 | 0.00 | 0.00 | 46 | 1006.4 |
| 20260503033341 | 60 | 136 | 1.0 | 1.0 | 0.00 | 0.00 | 0.00 | 46 | 1006.8 |
| 20260503032838 | 60 | 136 | 1.0 | 1.0 | 0.00 | 0.00 | 0.00 | 46 | 1006.8 |
| 20260503032337 | 59 | 110 | 0.0 | 0.0 | 0.00 | 0.00 | 0.00 | 46 | 1006.6 |
| 20260503031834 | 60 | 121 | 0.0 | 0.0 | 0.00 | 0.00 | 0.00 | 44 | 1006.7 |
| 20260503031332 | 60 | 121 | 0.0 | 2.0 | 0.00 | 0.00 | 0.00 | 44 | 1007.0 |
| 20260503030828 | 60 | 137 | 0.0 | 1.0 | 0.00 | 0.00 | 0.00 | 44 | 1007.2 |
| 20260503030325 | 60 | 138 | 0.0 | 3.0 | 0.00 | 0.00 | 0.00 | 44 | 1007.3 |
| 20260503025821 | 60 | 115 | 1.0 | 2.0 | 0.00 | 0.00 | 0.00 | 44 | 1007.2 |
| 20260503025319 | 60 | 117 | 1.0 | 2.0 | 0.00 | 0.00 | 0.00 | 44 | 1007.4 |
| 20260503024816 | 60 | 164 | 0.0 | 2.0 | 0.00 | 0.00 | 0.00 | 43 | 1007.2 |
| 20260503024312 | 60 | 111 | 0.0 | 1.0 | 0.00 | 0.00 | 0.00 | 44 | 1007.2 |
| 20260503023809 | 60 | 165 | 1.0 | 1.0 | 0.00 | 0.00 | 0.00 | 43 | 1007.3 |
| 20260503023307 | 60 | 113 | 1.0 | 1.0 | 0.00 | 0.00 | 0.00 | 42 | 1007.0 |
| 20260503022803 | 60 | 114 | 0.0 | 1.0 | 0.00 | 0.00 | 0.00 | 43 | 1007.2 |
| 20260503022304 | 60 | 114 | 0.0 | 1.0 | 0.00 | 0.00 | 0.00 | 43 | 1007.1 |
| 20260503021759 | 60 | 108 | 0.0 | 1.0 | 0.00 | 0.00 | 0.00 | 42 | 1006.9 |
| 20260503021256 | 61 | 121 | 0.0 | 2.0 | 0.00 | 0.00 | 0.00 | 42 | 1007.3 |
| 20260503020754 | 60 | 161 | 0.0 | 2.0 | 0.00 | 0.00 | 0.00 | 42 | 1007.2 |
| 20260503020251 | 60 | 162 | 2.0 | 2.0 | 0.00 | 0.00 | 0.00 | 42 | 1007.1 |
| 20260503015747 | 60 | 163 | 1.0 | 2.0 | 0.00 | 0.00 | 0.00 | 44 | 1007.2 |
| 20260503015244 | 61 | 162 | 0.0 | 0.0 | 0.00 | 0.00 | 0.00 | 43 | 1007.0 |
| 20260503014739 | 61 | 156 | 1.0 | 1.0 | 0.00 | 0.00 | 0.00 | 43 | 1007.0 |
| 20260503014238 | 61 | 161 | 0.0 | 2.0 | 0.00 | 0.00 | 0.00 | 42 | 1007.3 |
| 20260503013735 | 61 | 153 | 0.0 | 1.0 | 0.00 | 0.00 | 0.00 | 41 | 1007.1 |
| 20260503013232 | 61 | 134 | 0.0 | 2.0 | 0.00 | 0.00 | 0.00 | 41 | 1007.0 |
| 20260503012730 | 62 | 157 | 1.0 | 2.0 | 0.00 | 0.00 | 0.00 | 41 | 1007.3 |
| 20260503012227 | 61 | 108 | 0.0 | 1.0 | 0.00 | 0.00 | 0.00 | 42 | 1007.3 |
| 20260503011723 | 61 | 162 | 0.0 | 5.0 | 0.00 | 0.00 | 0.00 | 43 | 1007.6 |
| 20260503011220 | 61 | 151 | 1.0 | 2.0 | 0.00 | 0.00 | 0.00 | 44 | 1007.4 |
| 20260503010716 | 61 | 161 | 0.0 | 2.0 | 0.00 | 0.00 | 0.00 | 45 | 1007.3 |
| 20260503010214 | 61 | 159 | 0.0 | 1.0 | 0.00 | 0.00 | 0.00 | 45 | 1007.4 |
| 20260503005711 | 61 | 159 | 1.0 | 2.0 | 0.00 | 0.00 | 0.00 | 43 | 1007.4 |
| 20260503005208 | 61 | 159 | 1.0 | 1.0 | 0.00 | 0.00 | 0.00 | 43 | 1007.3 |
| 20260503004704 | 62 | 158 | 1.0 | 1.0 | 0.00 | 0.00 | 0.00 | 43 | 1007.2 |
| 20260503004203 | 62 | 157 | 0.0 | 0.0 | 0.00 | 0.00 | 0.00 | 43 | 1007.2 |
| 20260503003700 | 62 | 152 | 0.0 | 3.0 | 0.00 | 0.00 | 0.00 | 42 | 1007.3 |
| 20260503003156 | 62 | 157 | 1.0 | 2.0 | 0.00 | 0.00 | 0.00 | 42 | 1007.3 |
| 20260503002653 | 63 | 220 | 2.0 | 5.0 | 0.00 | 0.00 | 0.00 | 42 | 1007.4 |
| 20260503002150 | 63 | 302 | 4.0 | 8.0 | 0.00 | 0.00 | 0.00 | 40 | 1007.8 |
| 20260503001646 | 63 | 124 | 0.0 | 5.0 | 0.00 | 0.00 | 0.00 | 41 | 1007.5 |
| 20260503001143 | 64 | 233 | 1.0 | 2.0 | 0.00 | 0.00 | 0.00 | 40 | 1007.8 |
| 20260503000641 | 63 | 78 | 1.0 | 8.0 | 0.00 | 0.00 | 0.00 | 39 | 1007.5 |
| 20260503000138 | 64 | 115 | 0.0 | 5.0 | 0.00 | 0.00 | 0.00 | 39 | 1007.7 |
| 20260502235634 | 64 | 151 | 1.0 | 2.0 | 0.00 | 0.00 | 0.00 | 39 | 1007.7 |
| 20260502235133 | 64 | 142 | 3.0 | 6.0 | 0.00 | 0.00 | 0.00 | 38 | 1007.9 |
| 20260502234628 | 64 | 174 | 3.0 | 3.0 | 0.00 | 0.00 | 0.00 | 37 | 1007.7 |
| 20260502234126 | 64 | 152 | 1.0 | 6.0 | 0.00 | 0.00 | 0.00 | 38 | 1008.0 |
| 20260502233621 | 64 | 245 | 1.0 | 3.0 | 0.00 | 0.00 | 0.00 | 37 | 1007.8 |
| 20260502233118 | 64 | 170 | 0.0 | 2.0 | 0.00 | 0.00 | 0.00 | 38 | 1008.0 |
| 20260502232614 | 64 | 226 | 3.0 | 3.0 | 0.00 | 0.00 | 0.00 | 37 | 1008.1 |
| 20260502232112 | 64 | 125 | 1.0 | 2.0 | 0.00 | 0.00 | 0.00 | 38 | 1008.2 |
| 20260502231608 | 64 | 257 | 1.0 | 2.0 | 0.00 | 0.00 | 0.00 | 38 | 1008.1 |
| 20260502231107 | 64 | 142 | 1.0 | 3.0 | 0.00 | 0.00 | 0.00 | 38 | 1008.4 |
| 20260502230604 | 64 | 90 | 1.0 | 2.0 | 0.00 | 0.00 | 0.00 | 37 | 1008.1 |
| 20260502225558 | 63 | 154 | 1.0 | 2.0 | 0.00 | 0.00 | 0.00 | 38 | 1008.1 |
| 20260502225055 | 64 | 147 | 1.0 | 2.0 | 0.00 | 0.00 | 0.00 | 37 | 1008.2 |
| 20260502224551 | 63 | 159 | 1.0 | 2.0 | 0.00 | 0.00 | 0.00 | 36 | 1008.1 |
| 20260502224048 | 63 | 130 | 1.0 | 3.0 | 0.00 | 0.00 | 0.00 | 36 | 1008.4 |
| 20260502223546 | 64 | 189 | 1.0 | 2.0 | 0.00 | 0.00 | 0.00 | 36 | 1008.2 |
| 20260502223044 | 64 | 128 | 0.0 | 5.0 | 0.00 | 0.00 | 0.00 | 36 | 1008.3 |
| 20260502222541 | 64 | 154 | 1.0 | 3.0 | 0.00 | 0.00 | 0.00 | 36 | 1008.4 |
| 20260502222037 | 63 | 143 | 1.0 | 2.0 | 0.00 | 0.00 | 0.00 | 36 | 1008.6 |
| 20260502221533 | 64 | 204 | 1.0 | 3.0 | 0.00 | 0.00 | 0.00 | 36 | 1008.6 |
| 20260502221031 | 64 | 137 | 0.0 | 3.0 | 0.00 | 0.00 | 0.00 | 36 | 1008.6 |
| 20260502220526 | 64 | 161 | 1.0 | 3.0 | 0.00 | 0.00 | 0.00 | 36 | 1008.7 |
| 20260502220024 | 64 | 318 | 3.0 | 3.0 | 0.00 | 0.00 | 0.00 | 35 | 1008.7 |
| 20260502215520 | 64 | 100 | 1.0 | 5.0 | 0.00 | 0.00 | 0.00 | 34 | 1008.9 |
| 20260502215017 | 64 | 283 | 2.0 | 3.0 | 0.00 | 0.00 | 0.00 | 35 | 1009.0 |
| 20260502214514 | 64 | 25 | 1.0 | 3.0 | 0.00 | 0.00 | 0.00 | 36 | 1008.9 |
| 20260502214012 | 64 | 197 | 1.0 | 3.0 | 0.00 | 0.00 | 0.00 | 34 | 1009.2 |
| 20260502213508 | 64 | 162 | 1.0 | 3.0 | 0.00 | 0.00 | 0.00 | 35 | 1009.1 |
| 20260502213007 | 64 | 114 | 2.0 | 5.0 | 0.00 | 0.00 | 0.00 | 34 | 1009.2 |
| 20260502212505 | 64 | 182 | 1.0 | 3.0 | 0.00 | 0.00 | 0.00 | 36 | 1009.3 |
| 20260502212002 | 64 | 102 | 1.0 | 3.0 | 0.00 | 0.00 | 0.00 | 35 | 1009.6 |
| 20260502211457 | 64 | 186 | 5.0 | 7.0 | 0.00 | 0.00 | 0.00 | 33 | 1009.4 |
| 20260502210955 | 66 | 202 | 4.0 | 6.0 | 0.00 | 0.00 | 0.00 | 32 | 1009.8 |
| 20260502210451 | 67 | 240 | 2.0 | 3.0 | 0.00 | 0.00 | 0.00 | 31 | 1009.8 |
| 20260502205949 | 68 | 214 | 5.0 | 6.0 | 0.00 | 0.00 | 0.00 | 31 | 1009.6 |
| 20260502205445 | 68 | 182 | 2.0 | 5.0 | 0.00 | 0.00 | 0.00 | 32 | 1009.8 |
| 20260502204942 | 67 | 149 | 0.0 | 3.0 | 0.00 | 0.00 | 0.00 | 33 | 1009.9 |
| 20260502204439 | 66 | 282 | 4.0 | 7.0 | 0.00 | 0.00 | 0.00 | 33 | 1009.9 |
| 20260502203937 | 64 | 153 | 2.0 | 6.0 | 0.00 | 0.00 | 0.00 | 32 | 1010.2 |